Location: Oak Glen
(34.0495°N, 116.9470°E)
Time: 21:12:06
(UTC-07:00)

Vanguard 1 - Pass Details

Date: 19 June 2018
Orbit: 650 x 3833 km, 34.2° (Epoch: 22 July)

Event Time Altitude Azimuth Distance (km) Brightness Sun altitude
Rises 13:00:21 0° 195° (SSW) 3,891 - -11.2°
Exits shadow 13:01:14 - 191° (S) 3,682 12.6 -11.1°
Reaches altitude 10° 13:03:18 10° 179° (S) 3,278 12.4 -10.8°
Maximum altitude 13:09:43 23° 130° (SE) 3,117 12.8 -9.7°
Drops below altitude 10° 13:19:21 10° 85° (E) 5,140 14.8 -8.1°
Sets 13:25:36 0° 74° (ENE) 6,757 16.0 -7.0°
